Meteo pe oră la Dzhuryns'ka Slobidka

Astăzi, 3 Martie, Miercuri

Timp Temperatura Precipitaţii Vânt Presiune Umiditate
00:00 +1°C° 0 mm 5 m/s 741 mmHg 89%
01:00 0°C° 0 mm 4 m/s 741 mmHg 90%
02:00 0°C° 0 mm 3 m/s 741 mmHg 92%
03:00 0°C° 0 mm 3 m/s 741 mmHg 93%
04:00 0°C° 0 mm 3 m/s 741 mmHg 94%
05:00 -1°C° 0 mm 3 m/s 741 mmHg 94%
06:00 -1°C° 0 mm 3 m/s 741 mmHg 94%
07:00 0°C° 0 mm 3 m/s 741 mmHg 94%
08:00 +1°C° 0 mm 2 m/s 741 mmHg 94%
09:00 +2°C° 0 mm 2 m/s 741 mmHg 88%
10:00 +3°C° 0 mm 2 m/s 741 mmHg 83%
11:00 +5°C° 0 mm 2 m/s 741 mmHg 78%
12:00 +6°C° 0 mm 2 m/s 741 mmHg 74%
13:00 +6°C° 0 mm 2 m/s 740 mmHg 70%
14:00 +7°C° 0 mm 2 m/s 740 mmHg 66%
15:00 +7°C° 0 mm 2 m/s 739 mmHg 67%
16:00 +7°C° 0 mm 2 m/s 739 mmHg 68%
17:00 +8°C° 0 mm 1 m/s 738 mmHg 69%
18:00 +7°C° 0 mm 1 m/s 738 mmHg 73%
19:00 +6°C° 0 mm 1 m/s 738 mmHg 77%
20:00 +5°C° 0 mm 1 m/s 738 mmHg 81%
21:00 +5°C° 0 mm 1 m/s 737 mmHg 82%
22:00 +3°C° 0 mm 2 m/s 737 mmHg 83%
23:00 +3°C° 0 mm 2 m/s 736 mmHg 84%

Mâine, 4 Martie, Joi

Timp Temperatura Precipitaţii Vânt Presiune Umiditate
00:00 +3°C° 0 mm 2 m/s 736 mmHg 84%
01:00 +2°C° 0 mm 2 m/s 735 mmHg 84%
02:00 +2°C° 0 mm 2 m/s 735 mmHg 84%
03:00 +2°C° 0 mm 2 m/s 734 mmHg 82%
04:00 +2°C° 0 mm 2 m/s 734 mmHg 79%
05:00 +2°C° 0 mm 2 m/s 733 mmHg 77%
06:00 +2°C° 0 mm 2 m/s 733 mmHg 77%
07:00 +2°C° 0 mm 2 m/s 732 mmHg 77%
08:00 +2°C° 0 mm 2 m/s 732 mmHg 76%
09:00 +3°C° 0 mm 3 m/s 732 mmHg 70%
10:00 +5°C° 0 mm 4 m/s 731 mmHg 64%
11:00 +7°C° 0 mm 5 m/s 731 mmHg 57%
12:00 +8°C° 0 mm 5 m/s 730 mmHg 53%
13:00 +10°C° 0 mm 5 m/s 730 mmHg 49%
14:00 +11°C° 0 mm 6 m/s 729 mmHg 45%
15:00 +10°C° 0 mm 5 m/s 729 mmHg 48%
16:00 +10°C° 0 mm 5 m/s 728 mmHg 51%
17:00 +9°C° 0 mm 5 m/s 728 mmHg 54%
18:00 +8°C° 0 mm 4 m/s 728 mmHg 60%
19:00 +7°C° 0 mm 4 m/s 728 mmHg 66%
20:00 +5°C° 0 mm 4 m/s 728 mmHg 71%
21:00 +5°C° 0 mm 3 m/s 728 mmHg 74%
22:00 +4°C° 0 mm 3 m/s 728 mmHg 76%
23:00 +4°C° 0 mm 3 m/s 728 mmHg 78%

Poimâine, 5 Martie, Vineri

Timp Temperatura Precipitaţii Vânt Presiune Umiditate
00:00 +4°C° 0 mm 3 m/s 727 mmHg 79%
01:00 +4°C° 0 mm 3 m/s 727 mmHg 80%
02:00 +4°C° 0 mm 3 m/s 727 mmHg 82%
03:00 +5°C° 0.4 mm 2 m/s 727 mmHg 86%
04:00 +5°C° 0.4 mm 2 m/s 727 mmHg 90%
05:00 +5°C° 0.4 mm 1 m/s 726 mmHg 94%
06:00 +4°C° 0.6 mm 2 m/s 726 mmHg 94%
07:00 +3°C° 0.6 mm 3 m/s 726 mmHg 94%
08:00 +2°C° 0.6 mm 3 m/s 726 mmHg 94%
09:00 +2°C° 0.6 mm 3 m/s 726 mmHg 94%
10:00 +1°C° 0.6 mm 3 m/s 726 mmHg 95%
11:00 0°C° 0.6 mm 3 m/s 726 mmHg 95%
12:00 -1°C° 0.5 mm 4 m/s 727 mmHg 95%
13:00 -1°C° 0.5 mm 4 m/s 727 mmHg 95%
14:00 -1°C° 0.5 mm 5 m/s 728 mmHg 95%
15:00 -1°C° 0.2 mm 5 m/s 728 mmHg 92%
16:00 -2°C° 0.2 mm 5 m/s 729 mmHg 90%
17:00 -2°C° 0.2 mm 5 m/s 729 mmHg 87%
18:00 -2°C° 0 mm 4 m/s 730 mmHg 84%
19:00 -2°C° 0 mm 4 m/s 731 mmHg 80%
20:00 -1°C° 0 mm 3 m/s 732 mmHg 77%
21:00 -2°C° 0 mm 3 m/s 732 mmHg 76%
22:00 -2°C° 0 mm 3 m/s 733 mmHg 76%
23:00 -2°C° 0 mm 3 m/s 733 mmHg 76%

6 Martie, Sâmbătă

Timp Temperatura Precipitaţii Vânt Presiune Umiditate
00:00 -2°C° 0 mm 3 m/s 734 mmHg 74%
01:00 -4°C° 0 mm 3 m/s 734 mmHg 73%
02:00 -4°C° 0 mm 3 m/s 735 mmHg 72%
03:00 -4°C° 0 mm 3 m/s 735 mmHg 71%
04:00 -4°C° 0 mm 3 m/s 735 mmHg 70%
05:00 -5°C° 0 mm 4 m/s 735 mmHg 69%
06:00 -5°C° 0 mm 4 m/s 736 mmHg 69%
07:00 -5°C° 0 mm 4 m/s 736 mmHg 68%
08:00 -5°C° 0 mm 4 m/s 737 mmHg 67%
09:00 -4°C° 0 mm 4 m/s 737 mmHg 61%
10:00 -3°C° 0 mm 4 m/s 738 mmHg 54%
11:00 -2°C° 0 mm 4 m/s 738 mmHg 48%
12:00 -2°C° 0 mm 4 m/s 738 mmHg 45%
13:00 -2°C° 0 mm 5 m/s 738 mmHg 43%
14:00 -1°C° 0 mm 5 m/s 738 mmHg 40%
15:00 -2°C° 0 mm 4 m/s 738 mmHg 42%
16:00 -2°C° 0 mm 4 m/s 738 mmHg 45%
17:00 -2°C° 0 mm 4 m/s 739 mmHg 47%
18:00 -2°C° 0 mm 3 m/s 739 mmHg 51%
19:00 -2°C° 0 mm 3 m/s 739 mmHg 56%
20:00 -3°C° 0 mm 2 m/s 740 mmHg 61%
21:00 -3°C° 0 mm 2 m/s 740 mmHg 63%
22:00 -3°C° 0 mm 2 m/s 740 mmHg 66%
23:00 -4°C° 0 mm 3 m/s 740 mmHg 69%

7 Martie, Duminică

Timp Temperatura Precipitaţii Vânt Presiune Umiditate
00:00 -4°C° 0 mm 3 m/s 740 mmHg 69%
01:00 -4°C° 0 mm 3 m/s 740 mmHg 70%
02:00 -5°C° 0 mm 3 m/s 739 mmHg 70%
03:00 -5°C° 0 mm 4 m/s 739 mmHg 69%
04:00 -5°C° 0 mm 4 m/s 739 mmHg 69%
05:00 -5°C° 0 mm 4 m/s 738 mmHg 68%
06:00 -4°C° 0 mm 4 m/s 738 mmHg 63%
07:00 -5°C° 0 mm 5 m/s 738 mmHg 59%
08:00 -5°C° 0 mm 5 m/s 737 mmHg 55%
09:00 -4°C° 0 mm 6 m/s 737 mmHg 50%
10:00 -3°C° 0 mm 6 m/s 737 mmHg 45%
11:00 -2°C° 0 mm 6 m/s 736 mmHg 41%
12:00 -1°C° 0 mm 7 m/s 736 mmHg 41%
13:00 0°C° 0 mm 7 m/s 735 mmHg 42%
14:00 0°C° 0 mm 7 m/s 734 mmHg 43%
15:00 0°C° 0 mm 7 m/s 734 mmHg 46%
16:00 +1°C° 0 mm 6 m/s 733 mmHg 49%
17:00 +1°C° 0 mm 6 m/s 733 mmHg 52%
18:00 0°C° 0 mm 5 m/s 733 mmHg 57%
19:00 -1°C° 0 mm 5 m/s 733 mmHg 62%
20:00 -2°C° 0 mm 5 m/s 733 mmHg 67%
21:00 -4°C° 0 mm 5 m/s 733 mmHg 67%
22:00 -4°C° 0 mm 5 m/s 733 mmHg 68%
23:00 -4°C° 0 mm 5 m/s 733 mmHg 68%

8 Martie, Luni

Timp Temperatura Precipitaţii Vânt Presiune Umiditate
00:00 -4°C° 0 mm 5 m/s 733 mmHg 69%
01:00 -4°C° 0 mm 5 m/s 732 mmHg 70%
02:00 -3°C° 0 mm 4 m/s 732 mmHg 70%
03:00 -3°C° 0 mm 4 m/s 732 mmHg 71%
04:00 -4°C° 0 mm 4 m/s 732 mmHg 73%
05:00 -4°C° 0 mm 4 m/s 732 mmHg 74%
06:00 -3°C° 0 mm 4 m/s 732 mmHg 74%
07:00 -3°C° 0 mm 4 m/s 732 mmHg 74%
08:00 -3°C° 0 mm 4 m/s 732 mmHg 73%
09:00 -2°C° 0 mm 5 m/s 731 mmHg 69%
10:00 -1°C° 0 mm 5 m/s 731 mmHg 65%
11:00 0°C° 0 mm 5 m/s 731 mmHg 61%
12:00 0°C° 0 mm 5 m/s 731 mmHg 60%
13:00 +1°C° 0 mm 5 m/s 731 mmHg 60%
14:00 +1°C° 0 mm 5 m/s 731 mmHg 59%
15:00 +1°C° 0 mm 5 m/s 730 mmHg 61%
16:00 +1°C° 0 mm 5 m/s 730 mmHg 63%
17:00 0°C° 0 mm 4 m/s 730 mmHg 65%
18:00 -1°C° 0 mm 4 m/s 730 mmHg 70%
19:00 0°C° 0 mm 3 m/s 731 mmHg 75%
20:00 -1°C° 0 mm 3 m/s 731 mmHg 80%
21:00 -2°C° 0 mm 3 m/s 731 mmHg 83%
22:00 -2°C° 0 mm 3 m/s 732 mmHg 86%
23:00 -3°C° 0 mm 4 m/s 732 mmHg 88%
Arată mai mult

Formular de consimțământ

Meteoprog și furnizorii noștri de servicii pot stoca și accesa date personale, precum cookies, identificatori de dispozitiv sau alte tehnologii similare pe dispozitivul dumneavoastră și procesa astfel de date pentru a personaliza conținutul și reclamele, dar și pentru a oferi caracteristici de social media și pentru a analiza traficul.

  • Stocarea și/sau accesarea informațiilor pe dispozitivul dumneavoastră

    Cookies, identificatori de dispozitiv sau alte informații pot fi stocate sau accesate pe dispozitiv în scopurile indicate mai sus.

  • Reclame și conținut personalizat, evaluarea reclamelor și a conținutului, informații despre audiențe și dezvoltarea produselor

    Reclamele și conținutul pot fi personalizate pe baza unui profil. Pot fi adăugate date suplimentare pentru a personaliza mai bine reclamele și conținutul. Performanța reclamelor și conținutului poate fi măsurată. Pot fi obținute informații despre utilizatorii care au văzut reclamele și conținutul. Aceste date pot fi utilizate pentru a dezvolta sau îmbunătăți experiența utilizatorilor, sistemele și software-ul.

Dând clic pe ‘Sunt de acord’, permiteți utilizarea cookie-urilor menționate, a identificatorilor de dispozitiv, balizelor web sau altor tehnologii similare. Setările pot fi modificate din browser-ul dispozitivului dumneavoastră.

În anumite scopuri, interesele legitime pot prima asupra consimțământului. Puteți citi mai multe informații în acest sens în Politica privind Confidențialitatea Datelor și Cookie.